| time (UTC) | temp F | wind direction | speed knots | gust knots | rain 1hr in | rain 24hr in | rain mn in | humidity % | barometer mb |
| 20260508054602 | 63 | 61 | 0.9 | 3.5 | 0.00 | 0.00 | 0.00 | 84 | 1013.5 |
| 20260508054023 | 63 | 61 | 1.7 | 7.0 | 0.00 | 0.00 | 0.00 | 84 | 1013.2 |
| 20260508053530 | 63 | 36 | 3.5 | 7.8 | 0.00 | 0.00 | 0.00 | 84 | 1013.1 |
| 20260508053022 | 63 | 322 | 4.3 | 5.2 | 0.00 | 0.00 | 0.00 | 84 | 1013.8 |
| 20260508052530 | 63 | 340 | 2.6 | 4.3 | 0.00 | 0.00 | 0.00 | 84 | 1013.5 |
| 20260508052041 | 63 | 342 | 0.9 | 4.3 | 0.00 | 0.00 | 0.00 | 83 | 1013.1 |
| 20260508051540 | 63 | 340 | 1.7 | 4.3 | 0.00 | 0.00 | 0.00 | 84 | 1013.3 |
| 20260508051041 | 63 | 336 | 1.7 | 4.3 | 0.00 | 0.00 | 0.00 | 83 | 1013.4 |
| 20260508050531 | 63 | 331 | 2.6 | 7.0 | 0.00 | 0.00 | 0.00 | 84 | 1013.5 |
| 20260508045524 | 63 | 323 | 3.5 | 5.2 | 0.00 | 0.00 | 0.00 | 83 | 1014.0 |
| 20260508044542 | 63 | 337 | 1.7 | 3.5 | 0.00 | 0.00 | 0.00 | 83 | 1013.9 |
| 20260508044038 | 63 | 337 | 2.6 | 5.2 | 0.00 | 0.00 | 0.00 | 82 | 1013.8 |
| 20260508043617 | 63 | 339 | 2.6 | 5.2 | 0.00 | 0.00 | 0.00 | 82 | 1013.8 |
| 20260508043048 | 64 | 46 | 2.6 | 3.5 | 0.00 | 0.00 | 0.00 | 82 | 1013.8 |
| 20260508042558 | 64 | 49 | 1.7 | 2.6 | 0.00 | 0.00 | 0.00 | 81 | 1013.8 |
| 20260508042058 | 64 | 49 | 0.9 | 3.5 | 0.00 | 0.00 | 0.00 | 81 | 1013.7 |
| 20260508041529 | 64 | 49 | 2.6 | 3.5 | 0.00 | 0.00 | 0.00 | 81 | 1013.7 |
| 20260508041034 | 64 | 50 | 2.6 | 3.5 | 0.00 | 0.00 | 0.00 | 81 | 1013.9 |
| 20260508035604 | 64 | 74 | 2.6 | 2.6 | 0.00 | 0.00 | 0.00 | 80 | 1013.6 |
| 20260508035115 | 64 | 75 | 1.7 | 4.3 | 0.00 | 0.00 | 0.00 | 80 | 1013.4 |
| 20260508034536 | 64 | 75 | 3.5 | 4.3 | 0.00 | 0.00 | 0.00 | 80 | 1013.2 |
| 20260508034048 | 64 | 92 | 1.7 | 7.0 | 0.00 | 0.00 | 0.00 | 79 | 1013.2 |
| 20260508033029 | 64 | 69 | 5.2 | 8.7 | 0.00 | 0.00 | 0.00 | 79 | 1012.8 |
| 20260508032541 | 64 | 72 | 5.2 | 8.7 | 0.00 | 0.00 | 0.00 | 79 | 1012.7 |
| 20260508031556 | 64 | 71 | 5.2 | 7.8 | 0.00 | 0.00 | 0.00 | 79 | 1013.1 |
| 20260508031059 | 64 | 67 | 2.6 | 7.0 | 0.00 | 0.00 | 0.00 | 79 | 1013.0 |
| 20260508030610 | 64 | 59 | 2.6 | 8.7 | 0.00 | 0.00 | 0.00 | 78 | 1013.1 |
| 20260508030135 | 64 | 61 | 7.0 | 9.6 | 0.00 | 0.00 | 0.00 | 78 | 1012.8 |
| 20260508025624 | 64 | 76 | 7.0 | 9.6 | 0.00 | 0.00 | 0.00 | 78 | 1012.5 |
| 20260508024624 | 64 | 54 | 2.6 | 6.1 | 0.00 | 0.00 | 0.00 | 78 | 1012.7 |
| 20260508024119 | 64 | 26 | 2.6 | 7.0 | 0.00 | 0.00 | 0.00 | 78 | 1013.5 |
| 20260508023119 | 64 | 20 | 4.3 | 7.8 | 0.00 | 0.00 | 0.00 | 78 | 1013.3 |
| 20260508022609 | 64 | 38 | 1.7 | 3.5 | 0.00 | 0.00 | 0.00 | 78 | 1013.6 |
| 20260508022112 | 64 | 51 | 2.6 | 4.3 | 0.00 | 0.00 | 0.00 | 78 | 1013.5 |
| 20260508021538 | 64 | 78 | 3.5 | 4.3 | 0.00 | 0.00 | 0.00 | 78 | 1013.4 |
| 20260508021041 | 64 | 81 | 2.6 | 5.2 | 0.00 | 0.00 | 0.00 | 78 | 1013.0 |
| 20260508020041 | 65 | 74 | 4.3 | 6.1 | 0.00 | 0.00 | 0.00 | 78 | 1013.0 |
| 20260508015553 | 65 | 69 | 3.5 | 5.2 | 0.00 | 0.00 | 0.00 | 78 | 1013.0 |
| 20260508014617 | 65 | 74 | 3.5 | 5.2 | 0.00 | 0.00 | 0.00 | 78 | 1013.1 |
| 20260508014105 | 65 | 47 | 2.6 | 3.5 | 0.00 | 0.00 | 0.00 | 77 | 1013.4 |
| 20260508013127 | 65 | 29 | 1.7 | 5.2 | 0.00 | 0.00 | 0.00 | 77 | 1013.9 |
| 20260508012610 | 65 | 5 | 3.5 | 5.2 | 0.00 | 0.00 | 0.00 | 76 | 1013.9 |
| 20260508012120 | 66 | 13 | 3.5 | 5.2 | 0.00 | 0.00 | 0.00 | 76 | 1013.7 |
| 20260508011548 | 66 | 355 | 3.5 | 5.2 | 0.00 | 0.00 | 0.00 | 76 | 1013.7 |
| 20260508011054 | 66 | 5 | 2.6 | 3.5 | 0.00 | 0.00 | 0.00 | 76 | 1013.6 |
| 20260508010114 | 66 | 37 | 2.6 | 3.5 | 0.00 | 0.00 | 0.00 | 75 | 1013.5 |
| 20260508005530 | 67 | 38 | 1.7 | 5.2 | 0.00 | 0.00 | 0.00 | 74 | 1013.6 |
| 20260508004551 | 67 | 351 | 2.6 | 6.1 | 0.00 | 0.00 | 0.00 | 74 | 1013.7 |
| 20260508004104 | 67 | 348 | 2.6 | 6.1 | 0.00 | 0.00 | 0.00 | 74 | 1013.5 |
| 20260508003609 | 67 | 38 | 3.5 | 7.0 | 0.00 | 0.00 | 0.00 | 74 | 1013.4 |
| 20260508003035 | 67 | 51 | 2.6 | 7.0 | 0.00 | 0.00 | 0.00 | 74 | 1013.4 |
| 20260508002548 | 67 | 19 | 1.7 | 7.8 | 0.00 | 0.00 | 0.00 | 74 | 1013.5 |
| 20260508002109 | 67 | 350 | 4.3 | 7.8 | 0.00 | 0.00 | 0.00 | 73 | 1013.7 |
| 20260508001541 | 68 | 350 | 3.5 | 8.7 | 0.00 | 0.00 | 0.00 | 73 | 1013.6 |
| 20260508001046 | 68 | 32 | 4.3 | 8.7 | 0.00 | 0.00 | 0.00 | 73 | 1013.8 |
| 20260508000047 | 68 | 37 | 6.1 | 7.8 | 0.00 | 0.00 | 0.00 | 72 | 1013.7 |
| 20260507235556 | 68 | 25 | 3.5 | 7.0 | 0.00 | 0.00 | 0.00 | 72 | 1013.9 |
| 20260507234616 | 68 | 348 | 3.5 | 7.8 | 0.00 | 0.00 | 0.00 | 72 | 1014.0 |
| 20260507234108 | 68 | 39 | 3.5 | 9.6 | 0.00 | 0.00 | 0.00 | 72 | 1014.3 |
| 20260507233109 | 69 | 316 | 5.2 | 9.6 | 0.00 | 0.00 | 0.00 | 70 | 1014.2 |
| 20260507232557 | 69 | 28 | 5.2 | 9.6 | 0.00 | 0.00 | 0.00 | 71 | 1014.1 |
| 20260507231535 | 68 | 16 | 5.2 | 9.6 | 0.00 | 0.00 | 0.00 | 71 | 1013.9 |
| 20260507231043 | 68 | 46 | 3.5 | 11.3 | 0.00 | 0.00 | 0.00 | 71 | 1013.9 |
| 20260507230044 | 68 | 5 | 3.5 | 11.3 | 0.00 | 0.00 | 0.00 | 71 | 1013.9 |
| 20260507225556 | 68 | 44 | 6.1 | 11.3 | 0.00 | 0.00 | 0.00 | 70 | 1014.1 |
| 20260507224557 | 69 | 5 | 7.8 | 12.2 | 0.00 | 0.00 | 0.00 | 70 | 1014.6 |
| 20260507224107 | 69 | 355 | 6.1 | 10.4 | 0.00 | 0.00 | 0.00 | 71 | 1014.3 |
| 20260507223612 | 69 | 323 | 6.1 | 11.3 | 0.00 | 0.00 | 0.00 | 72 | 1014.3 |
| 20260507223040 | 68 | 341 | 7.8 | 12.2 | 0.00 | 0.00 | 0.00 | 71 | 1014.2 |
| 20260507222529 | 68 | 341 | 6.1 | 13.0 | 0.00 | 0.00 | 0.00 | 72 | 1014.3 |
| 20260507222115 | 69 | 331 | 7.8 | 13.0 | 0.00 | 0.00 | 0.00 | 72 | 1014.2 |
| 20260507221546 | 69 | 355 | 5.2 | 11.3 | 0.00 | 0.00 | 0.00 | 72 | 1014.0 |
| 20260507221049 | 69 | 349 | 5.2 | 9.6 | 0.00 | 0.00 | 0.00 | 72 | 1013.9 |
| 20260507220640 | 69 | 355 | 4.3 | 13.0 | 0.00 | 0.00 | 0.00 | 72 | 1013.8 |
| 20260507220036 | 69 | 360 | 9.6 | 13.0 | 0.00 | 0.00 | 0.00 | 70 | 1014.0 |
| 20260507215546 | 69 | 355 | 6.1 | 10.4 | 0.00 | 0.00 | 0.00 | 72 | 1013.9 |
| 20260507214606 | 69 | 13 | 4.3 | 10.4 | 0.00 | 0.00 | 0.00 | 71 | 1013.7 |
| 20260507214117 | 69 | 26 | 4.3 | 9.6 | 0.00 | 0.00 | 0.00 | 71 | 1013.7 |
| 20260507213559 | 69 | 34 | 4.3 | 8.7 | 0.00 | 0.00 | 0.00 | 71 | 1013.6 |
| 20260507213025 | 69 | 11 | 3.5 | 8.7 | 0.00 | 0.00 | 0.00 | 71 | 1013.5 |
| 20260507212527 | 69 | 5 | 6.1 | 8.7 | 0.00 | 0.00 | 0.00 | 70 | 1013.6 |
| 20260507212117 | 69 | 41 | 3.5 | 7.8 | 0.00 | 0.00 | 0.00 | 71 | 1013.8 |
| 20260507211547 | 69 | 17 | 4.3 | 7.8 | 0.00 | 0.00 | 0.00 | 70 | 1014.2 |
| 20260507211046 | 69 | 12 | 3.5 | 7.8 | 0.00 | 0.00 | 0.00 | 70 | 1014.3 |
| 20260507210053 | 69 | 84 | 6.1 | 9.6 | 0.00 | 0.00 | 0.00 | 69 | 1014.0 |
| 20260507205555 | 70 | 24 | 4.3 | 9.6 | 0.00 | 0.00 | 0.00 | 69 | 1013.9 |
| 20260507204616 | 70 | 46 | 6.1 | 11.3 | 0.00 | 0.00 | 0.00 | 68 | 1013.8 |
| 20260507204125 | 70 | 349 | 4.3 | 11.3 | 0.00 | 0.00 | 0.00 | 68 | 1013.8 |
| 20260507203607 | 70 | 18 | 7.0 | 11.3 | 0.00 | 0.00 | 0.00 | 68 | 1014.1 |
| 20260507203033 | 70 | 26 | 7.8 | 11.3 | 0.00 | 0.00 | 0.00 | 67 | 1014.5 |
| 20260507202543 | 70 | 26 | 5.2 | 10.4 | 0.00 | 0.00 | 0.00 | 69 | 1014.7 |
| 20260507201546 | 71 | 333 | 5.2 | 11.3 | 0.00 | 0.00 | 0.00 | 68 | 1014.9 |
| 20260507201049 | 71 | 344 | 7.0 | 14.8 | 0.00 | 0.00 | 0.00 | 67 | 1014.9 |
| 20260507200558 | 71 | 5 | 7.8 | 14.8 | 0.00 | 0.00 | 0.00 | 67 | 1014.9 |
| 20260507200027 | 72 | 5 | 5.2 | 10.4 | 0.00 | 0.00 | 0.00 | 67 | 1015.0 |
| 20260507195530 | 72 | 17 | 5.2 | 8.7 | 0.00 | 0.00 | 0.00 | 68 | 1014.9 |
| 20260507195141 | 72 | 37 | 6.1 | 9.6 | 0.00 | 0.00 | 0.00 | 67 | 1015.0 |
| 20260507194539 | 72 | 13 | 6.1 | 10.4 | 0.00 | 0.00 | 0.00 | 68 | 1014.9 |
| 20260507194029 | 72 | 59 | 5.2 | 9.6 | 0.00 | 0.00 | 0.00 | 67 | 1014.7 |
| 20260507193047 | 71 | 33 | 6.1 | 13.0 | 0.00 | 0.00 | 0.00 | 69 | 1014.8 |
| 20260507192539 | 71 | 56 | 6.1 | 13.0 | 0.00 | 0.00 | 0.00 | 69 | 1014.6 |
| 20260507191604 | 71 | 52 | 7.0 | 13.0 | 0.00 | 0.00 | 0.00 | 69 | 1014.6 |
| 20260507191053 | 70 | 48 | 7.8 | 13.0 | 0.00 | 0.00 | 0.00 | 70 | 1014.5 |
| 20260507190553 | 70 | 344 | 5.2 | 13.0 | 0.00 | 0.00 | 0.00 | 71 | 1014.6 |
| 20260507190023 | 71 | 21 | 6.1 | 12.2 | 0.00 | 0.00 | 0.00 | 71 | 1014.8 |
| 20260507185527 | 71 | 351 | 5.2 | 12.2 | 0.00 | 0.00 | 0.00 | 70 | 1015.0 |
| 20260507185053 | 71 | 36 | 6.1 | 11.3 | 0.00 | 0.00 | 0.00 | 71 | 1015.0 |
| 20260507184523 | 70 | 23 | 7.0 | 11.3 | 0.00 | 0.00 | 0.00 | 70 | 1015.2 |
| 20260507184134 | 70 | 65 | 6.1 | 10.4 | 0.00 | 0.00 | 0.00 | 72 | 1015.2 |
| 20260507183619 | 70 | 25 | 5.2 | 11.3 | 0.00 | 0.00 | 0.00 | 73 | 1015.2 |
| 20260507183044 | 69 | 67 | 7.0 | 11.3 | 0.00 | 0.00 | 0.00 | 73 | 1015.2 |
| 20260507182552 | 68 | 30 | 5.2 | 12.2 | 0.00 | 0.00 | 0.00 | 74 | 1015.5 |
| 20260507181617 | 67 | 26 | 6.1 | 12.2 | 0.00 | 0.00 | 0.00 | 75 | 1016.2 |
| 20260507181059 | 67 | 65 | 6.1 | 12.2 | 0.00 | 0.00 | 0.00 | 76 | 1016.0 |
| 20260507180057 | 66 | 5 | 5.2 | 9.6 | 0.00 | 0.00 | 0.00 | 77 | 1016.4 |
| 20260507175607 | 65 | 316 | 4.3 | 8.7 | 0.00 | 0.00 | 0.00 | 77 | 1016.9 |
| 20260507174608 | 65 | 350 | 2.6 | 8.7 | 0.00 | 0.00 | 0.00 | 78 | 1016.8 |
| 20260507174057 | 64 | 346 | 4.3 | 11.3 | 0.00 | 0.00 | 0.00 | 77 | 1016.7 |
| 20260507173057 | 65 | 351 | 4.3 | 7.8 | 0.00 | 0.00 | 0.00 | 78 | 1016.4 |
| 20260507172604 | 64 | 19 | 4.3 | 7.8 | 0.00 | 0.00 | 0.00 | 79 | 1016.3 |
| 20260507172111 | 64 | 22 | 3.5 | 7.8 | 0.00 | 0.00 | 0.00 | 78 | 1016.5 |
| 20260507171539 | 64 | 39 | 4.3 | 8.7 | 0.00 | 0.00 | 0.00 | 78 | 1016.5 |
| 20260507171043 | 64 | 331 | 5.2 | 8.7 | 0.00 | 0.00 | 0.00 | 78 | 1016.4 |
| 20260507170110 | 63 | 29 | 3.5 | 10.4 | 0.00 | 0.00 | 0.00 | 80 | 1016.7 |
| 20260507165613 | 63 | 31 | 4.3 | 10.4 | 0.00 | 0.00 | 0.00 | 80 | 1016.7 |
| 20260507165122 | 63 | 315 | 6.1 | 10.4 | 0.00 | 0.00 | 0.00 | 80 | 1016.8 |
| 20260507164540 | 62 | 355 | 7.0 | 10.4 | 0.00 | 0.00 | 0.00 | 80 | 1016.9 |
| 20260507164034 | 62 | 355 | 6.1 | 9.6 | 0.00 | 0.00 | 0.00 | 81 | 1016.9 |
| 20260507163056 | 62 | 355 | 5.2 | 10.4 | 0.00 | 0.00 | 0.00 | 82 | 1016.9 |
| 20260507162558 | 62 | 360 | 7.0 | 10.4 | 0.00 | 0.00 | 0.00 | 81 | 1016.9 |
| 20260507161605 | 62 | 40 | 3.5 | 9.6 | 0.00 | 0.00 | 0.00 | 82 | 1016.9 |
| 20260507161108 | 62 | 329 | 6.1 | 12.2 | 0.00 | 0.00 | 0.00 | 81 | 1016.9 |
| 20260507160620 | 62 | 355 | 7.0 | 12.2 | 0.00 | 0.00 | 0.00 | 81 | 1016.8 |
| 20260507160040 | 63 | 339 | 7.8 | 12.2 | 0.00 | 0.00 | 0.00 | 81 | 1016.7 |
| 20260507155550 | 63 | 342 | 5.2 | 13.0 | 0.00 | 0.00 | 0.00 | 82 | 1016.5 |
| 20260507154615 | 62 | 355 | 8.7 | 13.0 | 0.00 | 0.00 | 0.00 | 82 | 1016.0 |
| 20260507154024 | 62 | 34 | 7.0 | 13.9 | 0.00 | 0.00 | 0.00 | 83 | 1015.9 |
| 20260507153528 | 62 | 355 | 8.7 | 13.9 | 0.00 | 0.00 | 0.00 | 83 | 1015.8 |
| 20260507153141 | 62 | 350 | 7.0 | 11.3 | 0.00 | 0.00 | 0.00 | 83 | 1016.0 |
| 20260507152523 | 61 | 360 | 7.0 | 12.2 | 0.00 | 0.00 | 0.00 | 84 | 1016.0 |
| 20260507151553 | 61 | 42 | 6.1 | 12.2 | 0.00 | 0.00 | 0.00 | 84 | 1015.8 |
| 20260507151057 | 61 | 5 | 7.0 | 12.2 | 0.00 | 0.00 | 0.00 | 85 | 1015.8 |
| 20260507150608 | 60 | 21 | 6.1 | 12.2 | 0.00 | 0.00 | 0.00 | 85 | 1016.0 |
| 20260507150039 | 60 | 49 | 7.8 | 12.2 | 0.00 | 0.00 | 0.00 | 85 | 1015.9 |
| 20260507145541 | 60 | 38 | 5.2 | 10.4 | 0.00 | 0.00 | 0.00 | 85 | 1016.1 |
| 20260507145051 | 60 | 5 | 7.8 | 10.4 | 0.00 | 0.00 | 0.00 | 85 | 1016.4 |
| 20260507144535 | 60 | 36 | 6.1 | 9.6 | 0.00 | 0.00 | 0.00 | 85 | 1016.6 |
| 20260507144044 | 60 | 37 | 4.3 | 11.3 | 0.00 | 0.00 | 0.00 | 86 | 1016.6 |
| 20260507143044 | 60 | 14 | 6.1 | 11.3 | 0.00 | 0.00 | 0.00 | 86 | 1016.9 |
| 20260507142554 | 60 | 44 | 4.3 | 9.6 | 0.00 | 0.00 | 0.00 | 86 | 1016.7 |
| 20260507142057 | 60 | 15 | 6.1 | 12.2 | 0.00 | 0.00 | 0.00 | 86 | 1016.6 |
| 20260507141525 | 60 | 20 | 6.1 | 12.2 | 0.00 | 0.00 | 0.00 | 86 | 1016.5 |
| 20260507141029 | 60 | 18 | 4.3 | 13.9 | 0.00 | 0.00 | 0.00 | 86 | 1016.5 |
| 20260507140636 | 60 | 20 | 7.0 | 13.9 | 0.00 | 0.00 | 0.00 | 86 | 1016.4 |
| 20260507140046 | 60 | 13 | 6.1 | 12.2 | 0.00 | 0.00 | 0.00 | 86 | 1016.5 |
| 20260507135547 | 60 | 36 | 6.1 | 12.2 | 0.00 | 0.00 | 0.00 | 86 | 1016.4 |
| 20260507134607 | 60 | 30 | 7.8 | 13.9 | 0.00 | 0.00 | 0.00 | 86 | 1016.4 |
| 20260507134117 | 60 | 18 | 6.1 | 13.9 | 0.00 | 0.00 | 0.00 | 86 | 1016.4 |
| 20260507133617 | 60 | 12 | 6.1 | 13.0 | 0.00 | 0.00 | 0.00 | 86 | 1016.3 |
| 20260507133026 | 60 | 16 | 7.0 | 13.0 | 0.00 | 0.00 | 0.00 | 86 | 1016.2 |
| 20260507132537 | 60 | 14 | 7.0 | 11.3 | 0.00 | 0.00 | 0.00 | 86 | 1016.4 |
| 20260507131559 | 60 | 28 | 4.3 | 11.3 | 0.00 | 0.00 | 0.00 | 86 | 1016.4 |
| 20260507131114 | 61 | 22 | 7.0 | 13.0 | 0.00 | 0.00 | 0.00 | 86 | 1016.4 |
| 20260507130611 | 61 | 18 | 7.0 | 13.0 | 0.00 | 0.00 | 0.00 | 86 | 1016.3 |
| 20260507130036 | 61 | 348 | 7.0 | 10.4 | 0.00 | 0.00 | 0.00 | 86 | 1016.3 |
| 20260507125540 | 61 | 27 | 6.1 | 9.6 | 0.00 | 0.00 | 0.00 | 86 | 1016.0 |
| 20260507124608 | 61 | 337 | 5.2 | 13.0 | 0.00 | 0.00 | 0.00 | 86 | 1015.8 |
| 20260507124111 | 61 | 26 | 5.2 | 13.0 | 0.00 | 0.00 | 0.00 | 86 | 1015.8 |
| 20260507123109 | 61 | 15 | 6.1 | 10.4 | 0.00 | 0.00 | 0.00 | 87 | 1015.8 |
| 20260507122618 | 61 | 27 | 6.1 | 11.3 | 0.00 | 0.00 | 0.00 | 87 | 1015.7 |
| 20260507122119 | 61 | 15 | 8.7 | 14.8 | 0.00 | 0.00 | 0.00 | 87 | 1015.7 |
| 20260507121549 | 61 | 334 | 9.6 | 14.8 | 0.00 | 0.00 | 0.00 | 88 | 1015.6 |
| 20260507121036 | 61 | 355 | 8.7 | 13.9 | 0.00 | 0.00 | 0.00 | 88 | 1015.5 |
| 20260507120640 | 61 | 338 | 9.6 | 13.0 | 0.00 | 0.00 | 0.00 | 88 | 1015.5 |
| 20260507120047 | 61 | 355 | 6.1 | 12.2 | 0.00 | 0.00 | 0.00 | 88 | 1015.3 |
| 20260507115529 | 61 | 355 | 6.1 | 11.3 | 0.00 | 0.00 | 0.00 | 88 | 1015.3 |
| 20260507114559 | 61 | 355 | 6.1 | 11.3 | 0.00 | 0.00 | 0.00 | 88 | 1014.9 |
| 20260507114102 | 61 | 333 | 7.8 | 11.3 | 0.00 | 0.00 | 0.00 | 88 | 1014.8 |
| 20260507113108 | 62 | 343 | 6.1 | 11.3 | 0.00 | 0.00 | 0.00 | 88 | 1014.8 |
| 20260507112610 | 62 | 5 | 6.1 | 10.4 | 0.00 | 0.00 | 0.00 | 88 | 1014.7 |
| 20260507111614 | 62 | 9 | 5.2 | 10.4 | 0.00 | 0.00 | 0.00 | 88 | 1014.6 |
| 20260507111103 | 62 | 346 | 4.3 | 9.6 | 0.00 | 0.00 | 0.00 | 88 | 1014.7 |
| 20260507110602 | 62 | 355 | 6.1 | 9.6 | 0.00 | 0.00 | 0.00 | 88 | 1014.6 |
| 20260507110032 | 62 | 22 | 2.6 | 9.6 | 0.00 | 0.00 | 0.00 | 88 | 1014.7 |
| 20260507105541 | 62 | 5 | 4.3 | 10.4 | 0.00 | 0.00 | 0.00 | 88 | 1015.0 |
| 20260507104539 | 62 | 315 | 4.3 | 10.4 | 0.00 | 0.00 | 0.00 | 88 | 1015.0 |
| 20260507104041 | 62 | 355 | 4.3 | 10.4 | 0.00 | 0.00 | 0.00 | 88 | 1014.3 |
| 20260507103041 | 62 | 340 | 6.1 | 11.3 | 0.00 | 0.00 | 0.00 | 88 | 1014.2 |
| 20260507102555 | 62 | 5 | 6.1 | 11.3 | 0.00 | 0.00 | 0.00 | 88 | 1013.7 |
| 20260507101553 | 62 | 9 | 5.2 | 10.4 | 0.00 | 0.00 | 0.00 | 88 | 1014.1 |
| 20260507101103 | 62 | 333 | 5.2 | 8.7 | 0.00 | 0.00 | 0.00 | 88 | 1014.2 |
| 20260507100609 | 62 | 350 | 7.0 | 11.3 | 0.00 | 0.00 | 0.00 | 88 | 1013.9 |
| 20260507100034 | 62 | 344 | 5.2 | 11.3 | 0.00 | 0.00 | 0.00 | 88 | 1013.8 |
| 20260507095538 | 62 | 350 | 6.1 | 9.6 | 0.00 | 0.00 | 0.00 | 88 | 1013.6 |
| 20260507094605 | 62 | 335 | 3.5 | 10.4 | 0.00 | 0.00 | 0.00 | 88 | 1013.5 |
| 20260507094108 | 62 | 360 | 4.3 | 10.4 | 0.00 | 0.00 | 0.00 | 88 | 1013.4 |
| 20260507093619 | 62 | 26 | 7.0 | 10.4 | 0.00 | 0.00 | 0.00 | 87 | 1013.7 |
| 20260507093042 | 62 | 360 | 4.3 | 9.6 | 0.00 | 0.00 | 0.00 | 87 | 1013.7 |
| 20260507092551 | 62 | 337 | 6.1 | 9.6 | 0.00 | 0.00 | 0.00 | 87 | 1013.8 |
| 20260507091612 | 62 | 29 | 3.5 | 7.0 | 0.00 | 0.00 | 0.00 | 87 | 1013.6 |
| 20260507091101 | 62 | 15 | 2.6 | 6.1 | 0.00 | 0.00 | 0.00 | 87 | 1013.3 |
| 20260507090100 | 62 | 14 | 2.6 | 7.0 | 0.00 | 0.00 | 0.00 | 87 | 1013.3 |
| 20260507085613 | 62 | 43 | 1.7 | 8.7 | 0.00 | 0.00 | 0.00 | 87 | 1013.0 |
| 20260507085055 | 62 | 20 | 3.5 | 7.8 | 0.00 | 0.00 | 0.00 | 87 | 1013.1 |
| 20260507084524 | 62 | 31 | 3.5 | 8.7 | 0.00 | 0.00 | 0.00 | 87 | 1012.8 |
| 20260507084027 | 62 | 59 | 4.3 | 8.7 | 0.00 | 0.00 | 0.00 | 87 | 1012.6 |
| 20260507083055 | 62 | 24 | 4.3 | 8.7 | 0.00 | 0.00 | 0.00 | 87 | 1013.0 |
| 20260507082558 | 62 | 60 | 4.3 | 7.8 | 0.00 | 0.00 | 0.00 | 86 | 1012.8 |
| 20260507081619 | 62 | 25 | 5.2 | 8.7 | 0.00 | 0.00 | 0.00 | 86 | 1013.3 |
| 20260507081129 | 62 | 30 | 5.2 | 8.7 | 0.00 | 0.00 | 0.00 | 86 | 1013.4 |
| 20260507080612 | 62 | 28 | 4.3 | 9.6 | 0.00 | 0.00 | 0.00 | 86 | 1013.6 |
| 20260507080040 | 62 | 27 | 4.3 | 9.6 | 0.00 | 0.00 | 0.00 | 86 | 1013.7 |
| 20260507075556 | 62 | 30 | 4.3 | 8.7 | 0.00 | 0.00 | 0.00 | 86 | 1013.2 |
| 20260507074614 | 62 | 26 | 4.3 | 10.4 | 0.00 | 0.00 | 0.00 | 86 | 1013.5 |
| 20260507074106 | 62 | 26 | 5.2 | 11.3 | 0.00 | 0.00 | 0.00 | 86 | 1013.1 |
| 20260507073105 | 62 | 33 | 5.2 | 10.4 | 0.00 | 0.00 | 0.00 | 86 | 1013.4 |
| 20260507072608 | 62 | 54 | 3.5 | 7.8 | 0.00 | 0.00 | 0.00 | 85 | 1013.4 |
| 20260507072054 | 62 | 69 | 3.5 | 8.7 | 0.00 | 0.00 | 0.00 | 85 | 1013.6 |
| 20260507071524 | 62 | 18 | 5.2 | 8.7 | 0.00 | 0.00 | 0.00 | 85 | 1013.9 |
| 20260507071107 | 62 | 32 | 3.5 | 8.7 | 0.00 | 0.00 | 0.00 | 85 | 1013.4 |
| 20260507070618 | 62 | 71 | 4.3 | 10.4 | 0.00 | 0.00 | 0.00 | 85 | 1013.7 |
| 20260507070035 | 62 | 89 | 5.2 | 10.4 | 0.00 | 0.00 | 0.00 | 85 | 1013.4 |
| 20260507065528 | 62 | 49 | 3.5 | 11.3 | 0.00 | 0.00 | 0.00 | 85 | 1013.8 |
| 20260507065037 | 62 | 32 | 6.1 | 11.3 | 0.00 | 0.00 | 0.00 | 85 | 1013.7 |
| 20260507064535 | 62 | 53 | 4.3 | 11.3 | 0.00 | 0.00 | 0.00 | 85 | 1013.5 |
| 20260507064045 | 63 | 324 | 7.0 | 11.3 | 0.00 | 0.00 | 0.00 | 85 | 1013.2 |
| 20260507063526 | 63 | 34 | 4.3 | 11.3 | 0.00 | 0.00 | 0.00 | 85 | 1013.7 |
| 20260507063045 | 63 | 36 | 5.2 | 11.3 | 0.00 | 0.00 | 0.00 | 85 | 1013.7 |
| 20260507062533 | 63 | 42 | 3.5 | 9.6 | 0.00 | 0.00 | 0.00 | 85 | 1014.1 |
| 20260507062043 | 63 | 360 | 5.2 | 9.6 | 0.00 | 0.00 | 0.00 | 85 | 1014.1 |
| 20260507061534 | 63 | 35 | 3.5 | 8.7 | 0.00 | 0.00 | 0.00 | 85 | 1013.9 |
| 20260507061042 | 63 | 26 | 4.3 | 10.4 | 0.00 | 0.00 | 0.00 | 85 | 1014.1 |
| 20260507060531 | 63 | 355 | 6.1 | 11.3 | 0.00 | 0.00 | 0.00 | 85 | 1013.9 |
| 20260507060024 | 63 | 24 | 7.0 | 11.3 | 0.00 | 0.00 | 0.00 | 85 | 1014.1 |
| 20260507055533 | 63 | 26 | 4.3 | 10.4 | 0.00 | 0.00 | 0.00 | 84 | 1013.9 |
| 20260507055042 | 63 | 360 | 6.1 | 13.9 | 0.00 | 0.00 | 0.00 | 84 | 1013.9 |